Regional Weather Roundup
Issued by NWS Sioux Falls, SD

Home | Current Version | Previous Version | Text Only | Print | Product List | Glossary Off
Versions: 1 2 3 4 5 6 7 8 9 10 11 12 13 14 15 16 17 18 19 20 21 22 23 24 25 26 27 28 29 30 31 32 33 34 35 36 37 38 39 40 41 42 43 44 45 46 47 48 49 50

000
ASUS43 KFSD 052310
RWRFSD

WEATHER ROUNDUP FOR SE SOUTH DAKOTA/SW MINNESOTA/NW IOWA
NATIONAL WEATHER SERVICE SIOUX FALLS SD
600 PM CDT THU MAY 05 2016

NOTE: "FAIR" INDICATES FEW OR NO CLOUDS BELOW 12,000 FEET WITH NO
SIGNIFICANT WEATHER AND OR OBSTRUCTIONS TO VISIBILITY.


SDZ038>040-050-052>070-060000-
SOUTHEAST SOUTH DAKOTA

CITY           SKY/WX    TMP DP  RH WIND       PRES   REMARKS
BROOKINGS      SUNNY     80  44  27 S12       29.92F
CHAMBERLAIN    SUNNY     83  53  35 S15G21    29.88F
HURON          SUNNY     83  40  21 S15G23    29.87F
MADISON        FAIR      79  41  25 S16       29.93F
MITCHELL       SUNNY     83  41  22 S14       29.90F
SIOUX FALLS    MOSUNNY   75  48  38 SW9       29.94F
WINNER         LGT RAIN  85  47  26 S16       29.87F
YANKTON        SUNNY     81  41  24 SE8       29.92F
$$

MNZ071-072-080-081-089-090-097-098-060000-
SOUTHWEST MINNESOTA

CITY           SKY/WX    TMP DP  RH WIND       PRES   REMARKS
FAIRMONT       SUNNY     75  36  23 SW8       29.96F
JACKSON        SUNNY     77  30  18 SW10G17   29.97F
LUVERNE        SUNNY     77  36  22 SW8       29.96F
MARSHALL       SUNNY     82  43  25 W10       29.91F
MONTEVIDEO     SUNNY     86  43  22 W9G16     29.90F
PIPESTONE      SUNNY     77  39  25 SW13      29.95F
REDWOOD FALLS  SUNNY     82  39  21 W10       29.90F
TRACY          SUNNY     81  42  25 SW9G17    29.94F
WINDOM         SUNNY     79  37  22 SW9       29.95F
WORTHINGTON    SUNNY     77  39  25 SW12      29.97F
$$

IAZ001>003-012>014-020>022-031-032-NEZ013-014-SDZ071-060000-
NORTHWEST IOWA

CITY           SKY/WX    TMP DP  RH WIND       PRES   REMARKS
CHEROKEE       SUNNY     74  42  31 S8        29.98F
DENISON        SUNNY     75  37  25 VRB5      29.98F
ESTHERVILLE    SUNNY     75  40  28 SW9       29.97F
LE MARS        SUNNY     77  43  29 SW12      29.98F
ORANGE CITY    SUNNY     77  43  29 SW8       29.97F
SHELDON        SUNNY     77  39  25 S10G16    29.96S
SIOUX CITY     SUNNY     78  47  33 SE13      29.97F
SPENCER        SUNNY     77  35  21 SW9       29.97F
STORM LAKE     SUNNY     75  34  22 SW8       30.00S
$$

ABBREVIATIONS USED IN REMARKS
   TC - TEMPERATURE IN CELSIUS
  WCI - WIND CHILL INDEX
   HX - HEAT INDEX
  VSB - VISIBILITY





USA.gov is the U.S. government's official web portal to all federal, state and local government web resources and services.